Location: Celina Division
(33.3022°N, 96.7580°W)
Time: 12:31:03
(UTC+00:00)

Cosmos 1515 Rocket - Pass Details

Date: 08 December 2021
Orbit: 606 x 630 km, 82.5° (Epoch: 28 January)

Event Time Altitude Azimuth Distance (km) Brightness Sun altitude
Exits shadow 12:11:04 - 346° (NNW) 2,499 6.4 -13.8°
Reaches altitude 10° 12:12:24 10° 343° (NNW) 1,965 5.8 -13.6°
Maximum altitude 12:16:38 54° 267° (W) 740 3.6 -12.7°
Drops below altitude 10° 12:20:49 10° 190° (S) 1,946 6.2 -11.9°
Sets 12:23:03 0° 185° (S) 2,844 7.2 -11.5°
